SCP
0 0 0 0 0 0 0 0 0 0 0 0 0 0 0 0 0 0 0 0 0 0 0 0 0 0 0 0 0 0 0 0 0 0 0 0 0 0 0 0 0 0 0
0 0 0 0 0 0 0 0 0 0 0 0 0 0 0 0 0 0 0 0 0 0 0 0 0 0 0 0 0 0 0 0 0 0 0 0 0 0 0 0 0 0 0
0 0 0 0 0 0 0 0 0 0 0 0 0 0 0 0 0 0 0 0 0 0 0 0 0 0 0 0 0 0 0 0 0 0 0 0 0 0 0 0 0 0 0
0 0 0 0 0 0 0 0 0 0 0 0 0 0 0 0 0 0 0 0 0 0 0 0 0 0 0 0 0 0 0 0 0 0 0 0 0 0 0 0 0 0 0
0 0 0 0 0 0 0 0 0 0 0 0 0 0 0 0 0 0 0 0 0 0 0 0 0 0 0 0 0 0 0 0 0 0 0 0 0 0 0 0 0 0 0
0 0 0 0 0 0 0 0 0 0 0 0 0 0 0 0 0 0 0 0 0 0 0 0 0 0 0 0 0 0 0 0 0 0 0 0 0 0 0 0 0 0 0
0 0 0 0 0 0 0 0 0 0 0 0 0 0 0 0 0 0 0 0 0 0 0 0 0 0 0 0 0 0 0 0 0 0 0 0 0 0 0 0 0 0 0
0 0 0 0 0 0 0 0 0 0 0 0 0 0 0 0 0 0 0 0 0 0 0 0 0 0 0 0 0 0 0 0 0 0 0 0 0 0 0 0 0 0 0
0 0 0 0 0 0 0 0 0 0 0 0 0 0 0 0 0 0 0 0 0 0 0 0 0 0 0 0 0 0 0 0 0 0 0 0 0 0 0 0 0 0 0
0 0 0 0 0 0 0 0 0 0 0 0 0 0 0 0 0 0 0 0 0 0 0 0 0 0 0 0 0 0 0 0 0 0 0 0 0 0 0 0 0 0 0
0 0 0 0 0 0 0 0 0 0 0 0 0 0 0 0 0 0 0 0 0 0 0 0 0 0 0 0 0 0 0 0 0 0 0 0 0 0 0 0 0 0 0
0 0 0 0 0 0 0 0 0 0 0 0 0 0 0 0 0 0 0 0 0 0 0 0 0 0 0 0 0 0 0 0 0 0 0 0 0 0 0 0 0 0 0
0 0 0 0 0 0 0 0 0 0 0 0 0 0 0 0 0 0 0 0 0 0 0 0 0 0 0 0 0 0 0 0 0 0 0 0 0 0 0 0 0 0 0
0 0 0 0 0 0 0 0 0 0 0 0 0 0 0 0 0 0 0 0 0 0 0 0 0 0 0 0 0 0 0 0 0 0 0 0 0 0 0 0 0 0 0
0 0 0 0 0 0 0 0 0 0 0 0 0 0 0 0 0 0 0 0 0 0 0 0 0 0 0 0 0 0 0 0 0 0 0 0 0 0 0 0 0 0 0
0 0 0 0 0 0 0 0 0 0 0 0 0 0 0 0 0 0 0 0 0 0 0 0 0 0 0 0 0 0 0 0 0 0 0 0 0 0 0 0 0 0 0
0 0 0 0 0 0 0 0 0 0 0 0 0 0 0 0 0 0 0 0 0 0 0 0 0 0 0 0 0 0 0 0 0 0 0 0 0 0 0 0 0 0 0
0 0 0 0 0 0 0 0 0 0 0 0 0 0 0 0 0 0 0 0 0 0 0 0 0 0 0 0 0 0 0 0 0 0 0 0 0 0 0 0 0 0 0
0 0 0 0 0 0 0 0 0 0 0 0 0 0 0 0 0 0 0 0 0 0 0 0 0 0 0 0 0 0 0 0 0 0 0 0 0 0 0 0 0 0 0
0 0 0 0 0 0 0 0 0 0 0 0 0 0 0 0 0 0 0 0 0 0 0 0 0 0 0 0 0 0 0 0 0 0 0 0 0 0 0 0 0 0 0
0 0 0 0 0 0 0 0 0 0 0 0 0 0 0 0 0 0 0 0 0 0 0 0 0 0 0 0 0 0 0 0 0 0 0 0 0 0 0 0 0 0 0
0 0 0 0 0 0 0 0 0 0 0 0 0 0 0 0 0 0 0 0 0 0 0 0 0 0 0 0 0 0 0 0 0 0 0 0 0 0 0 0 0 0 0
0 0 0 0 0 0 0 0 0 0 0 0 0 0 0 0 0 0 0 0 0 0 0 0 0 0 0 0 0 0 0 0 0 0 0 0 0 0 0 0 0 0 0
0 0 0 0 0 0 0 0 0 0 0 0 0 0 0 0 0 0 0 0 0 0 0 0 0 0 0 0 0 0 0 0 0 0 0 0 0 0 0 0 0 0 0
0 0 0 0 0 0 0 0 0 0 0 0 0 0 0 0 0 0 0 0 0 0 0 0 0 0 0 0 0 0 0 0 0 0 0 0 0 0 0 0 0 0 0
0 0 0 0 0 0 0 0 0 0 0 0 0 0 0 0 0 0 0 0 0 0 0 0 0 0 0 -0 0 0 0 0 0 0 0 0 0 0 0 0 0 0 0
Wind_Speed
2 2 2 2 2 2 2 3 4 4 4 4 5 4 4 4 4 3 4 4 4 5 5 5 5 5 4 3 3 3 3 3 6 5 3 4 4 5 6 5 5 5 6
3 2 2 2 2 2 3 3 3 4 4 4 4 4 4 4 4 3 4 4 4 4 5 5 5 4 5 4 4 4 4 4 5 7 5 4 5 5 6 6 5 5 5
3 2 2 2 2 2 3 3 3 3 4 3 3 3 4 4 4 3 3 3 3 4 4 4 5 5 5 4 4 4 4 5 4 6 6 5 4 4 5 5 5 5 5
3 3 3 3 3 3 3 3 3 3 3 3 3 3 3 4 3 3 3 3 3 3 3 4 4 4 5 5 4 4 5 5 5 5 6 6 5 5 4 5 6 4 5
3 3 4 3 3 2 2 2 2 2 3 2 3 3 4 3 3 3 3 3 3 3 4 4 4 6 7 6 5 5 5 5 5 5 6 6 5 5 5 4 6 6 6
4 4 3 3 2 2 2 2 2 2 2 2 2 3 4 4 7 8 5 2 2 3 4 4 4 5 8 10 11 10 8 7 6 6 6 7 8 7 6 6 7 6 6
4 4 3 3 3 3 2 2 2 2 2 2 3 3 3 5 8 8 8 3 2 3 4 4 5 5 8 5 8 11 10 11 10 7 7 8 8 8 8 8 7 7 8
4 4 4 3 3 2 2 2 2 2 2 2 3 3 3 5 8 8 8 3 2 3 4 4 5 5 6 7 6 6 6 6 8 6 6 8 8 8 8 8 9 9 7
5 5 4 4 3 3 3 3 2 2 2 2 2 3 3 5 8 8 8 2 3 4 4 4 5 5 10 13 8 7 8 6 9 12 13 12 14 15 11 6 6 7 8
6 5 4 4 4 4 3 3 2 2 2 2 3 3 3 4 7 8 8 2 3 4 4 4 8 9 12 14 7 7 9 8 7 8 8 10 9 9 11 6 5 6 7
4 4 4 4 4 4 3 2 2 2 2 2 3 3 3 4 6 8 8 3 3 4 4 4 4 12 14 14 11 6 9 10 7 7 7 6 6 5 5 5 5 5 7
4 4 4 3 3 2 2 2 2 2 2 2 3 4 3 4 5 7 9 8 7 4 4 4 6 13 14 14 10 11 14 11 5 5 6 6 5 5 5 6 7 7 8
4 4 4 3 3 3 3 3 2 2 2 2 2 3 3 3 4 8 9 10 10 5 4 9 11 13 12 8 10 13 10 5 5 6 6 6 5 6 6 6 7 7 9
5 4 4 3 3 3 2 3 2 2 2 2 3 3 3 3 3 3 4 5 7 6 5 7 10 10 9 9 9 7 5 5 6 6 6 7 6 6 6 6 6 7 7
5 4 4 4 3 3 3 3 3 4 4 4 3 3 3 4 5 8 6 4 4 5 6 3 3 4 4 4 4 4 4 5 6 5 6 7 7 7 7 6 6 6 6
5 4 4 3 3 3 2 2 5 5 7 7 6 5 5 7 10 11 11 11 12 11 7 3 4 4 5 5 6 6 5 6 6 6 6 7 7 7 8 7 6 6 7
6 5 4 4 4 3 3 3 3 3 5 6 7 7 7 9 10 10 11 11 10 9 4 4 4 5 5 5 5 6 6 7 6 6 7 7 7 7 7 7 7 6 7
6 6 5 4 4 4 4 3 3 3 3 3 4 7 8 8 9 9 10 8 5 4 3 4 5 5 5 5 6 6 7 7 6 6 6 6 7 7 7 8 7 7 7
6 4 4 4 4 4 3 3 3 3 3 3 2 4 6 7 8 8 7 3 4 4 4 5 5 5 5 6 6 6 6 7 7 7 7 7 7 7 7 8 8 11 9
5 8 7 4 4 4 4 4 3 3 3 3 3 3 3 3 3 4 3 3 4 4 5 5 5 6 6 6 6 6 7 7 7 7 7 7 7 7 8 9 8 8 7
4 5 8 5 4 4 4 4 4 3 4 4 4 4 6 4 3 4 4 4 4 5 5 5 6 6 6 6 6 7 8 7 7 7 7 7 7 7 7 8 8 8 8
4 4 4 4 4 4 4 4 4 4 4 4 4 4 7 4 3 4 4 4 4 4 5 5 6 6 6 6 6 7 7 8 8 7 7 7 7 7 7 7 8 7 7
5 5 4 4 4 6 5 4 4 4 4 4 4 4 4 3 4 4 5 5 5 5 5 5 6 7 6 6 6 7 8 8 8 8 9 8 8 8 7 8 9 8 8
5 5 5 4 4 4 4 4 4 4 4 4 4 4 4 4 4 5 5 5 5 5 5 6 7 9 11 9 7 7 7 9 9 9 10 9 9 8 7 7 8 8 8
5 5 5 5 5 5 4 4 4 4 4 4 4 4 4 4 4 5 5 5 6 6 7 7 7 8 10 12 11 10 13 18 16 11 9 8 8 9 8 8 7 7 7
5 5 5 5 5 5 5 5 5 5 4 4 4 4 4 4 5 5 5 5 5 6 7 7 8 10 12 11 12 14 17 18 18 17 10 7 7 7 7 6 7 7 6
Wind_Direction
244 253 276 291 300 309 317 316 316 318 324 328 326 326 331 337 340 344 344 349 349 350 351 350 346 343 341 338 328 318 307 291 281 290 288 299 293 300 301 288 281 271 268
229 235 255 273 292 305 307 309 314 314 316 320 324 331 336 339 339 340 343 352 351 349 346 347 343 343 342 337 335 328 315 303 288 293 299 301 291 295 294 290 292 288 278
212 218 247 266 278 284 291 302 311 313 318 327 332 333 331 332 333 331 331 336 339 335 334 335 332 336 332 329 328 325 318 315 304 296 300 301 295 303 301 296 292 282 286
205 212 234 250 257 268 282 296 306 314 323 327 328 324 322 320 321 319 321 318 318 317 320 322 323 324 323 321 321 318 316 313 309 302 303 307 303 302 301 303 302 293 290
202 216 234 244 250 260 277 293 308 318 323 321 324 327 325 318 316 317 312 311 312 315 320 323 323 329 331 330 324 321 318 311 310 307 305 308 309 317 316 312 302 304 288
204 222 231 234 243 254 264 276 294 309 316 331 331 325 326 324 329 332 330 322 322 320 320 319 316 320 328 331 327 324 321 315 309 303 302 301 303 304 306 305 303 305 299
209 218 221 223 236 250 258 271 285 297 313 323 323 322 316 315 327 332 337 337 319 311 309 313 320 322 327 314 316 320 318 316 312 301 293 292 295 299 299 296 294 290 285
210 216 218 217 232 244 244 258 270 276 286 293 299 303 306 314 327 330 334 341 316 306 302 298 301 307 312 316 311 310 303 304 306 301 287 288 291 292 286 287 288 289 282
213 218 217 212 222 230 242 255 261 266 276 279 287 294 300 308 323 326 331 324 314 308 303 303 308 302 314 322 320 311 306 303 310 308 303 303 305 306 306 302 302 299 293
218 217 211 205 212 224 233 240 244 253 265 284 294 292 289 292 312 323 329 315 307 305 304 303 314 318 319 322 319 311 309 309 311 311 309 308 305 304 308 301 292 289 290
209 203 204 204 211 217 217 220 232 251 279 290 291 295 291 293 308 319 323 318 302 303 306 309 306 321 322 323 324 312 307 314 312 308 305 303 301 299 298 294 284 277 279
192 197 204 205 209 202 197 216 220 223 254 278 286 294 286 291 306 312 318 321 319 304 301 300 304 319 322 325 324 319 321 324 315 308 304 305 306 303 298 292 284 274 263
191 203 207 203 203 196 195 207 216 217 232 262 273 287 295 290 296 310 315 319 320 314 298 307 315 321 325 325 322 325 329 326 315 312 309 305 299 294 295 294 289 280 273
197 206 203 201 207 206 209 207 208 217 229 250 266 279 288 292 285 288 294 304 312 310 304 307 317 321 321 318 321 324 322 314 314 306 304 301 300 300 299 300 300 301 294
200 202 202 202 201 208 218 218 219 219 217 233 242 249 271 284 290 303 309 302 302 295 306 303 310 316 318 316 315 315 315 316 315 310 307 307 309 308 304 304 297 298 291
201 205 203 198 198 202 218 251 252 248 258 261 263 265 269 282 299 307 310 311 314 314 317 311 311 312 313 316 317 317 315 312 311 310 307 305 305 306 305 303 297 293 293
202 204 200 197 195 201 209 222 254 271 267 270 272 279 283 292 300 306 309 312 313 319 317 305 304 306 308 309 308 307 307 308 306 304 303 302 301 300 300 302 302 298 293
202 207 202 198 195 199 208 215 222 239 267 274 276 287 293 297 302 306 309 315 313 316 300 298 298 300 302 301 301 301 302 304 301 300 298 298 298 298 299 299 299 295 294
197 200 198 192 194 199 204 209 218 231 245 263 273 285 294 301 303 305 314 305 296 297 297 296 295 297 297 296 295 294 294 295 295 295 294 293 294 294 294 294 295 295 294
203 207 198 190 192 198 204 209 217 228 242 252 261 269 286 292 290 297 299 287 286 288 292 295 296 294 295 293 292 292 292 291 292 290 290 291 290 289 289 291 292 293 290
195 201 202 196 198 202 206 212 217 225 237 249 256 266 276 278 278 282 285 284 284 287 290 293 292 291 288 287 287 287 288 288 287 287 287 287 288 288 287 287 288 287 288
187 191 192 196 199 203 210 212 217 227 237 249 261 272 280 276 272 275 278 282 284 284 286 288 286 283 282 282 283 285 285 284 284 284 284 285 284 285 285 285 286 287 287
184 189 195 198 199 215 220 213 217 227 237 246 255 261 266 264 267 271 276 281 284 285 286 285 285 284 282 280 278 276 278 280 282 283 285 286 285 284 283 283 285 288 288
188 193 198 200 201 207 213 217 220 228 236 244 249 252 256 260 266 272 276 280 283 282 281 281 280 281 284 287 284 279 275 278 280 278 277 279 280 282 281 281 282 284 286
192 198 201 201 204 208 213 219 223 227 235 243 247 253 258 262 267 272 276 279 282 281 282 283 280 282 284 286 287 285 285 289 291 290 282 279 277 278 280 281 282 286 286
197 200 202 201 204 206 210 218 224 226 231 239 244 249 254 259 264 269 274 277 282 284 286 286 282 285 288 288 287 289 294 298 298 299 296 286 282 281 282 281 282 283 286